Location: Lombray
(49.5154°N, 3.1089°E)
Time: 07:47:42
(UTC+00:00)

NOSS 3-4 (C) - Pass Details

Date: 15 May 2026
Orbit: 773 x 1438 km, 63.4° (Epoch: 26 December)

Event Time Altitude Azimuth Distance (km) Brightness Sun altitude
Rises 20:40:00 0° 317° (NW) 3,641 8.9 -10.3°
Reaches altitude 10° 20:42:24 10° 319° (NW) 2,776 7.5 -10.6°
Maximum altitude 20:49:01 77° 45° (NE) 1,160 3.9 -11.3°
Enters shadow 20:55:45 15° 131° (SE) 2,874 5.3 -12.0°
